Location: Austin
(30.3000°N, 97.7500°W)
Time: 05:49:17
(UTC-05:00)

Helios 1A Rocket - Pass Details

Date: 16 June 2025
Orbit: 464 x 479 km, 98.3° (Epoch: 07 July)

Event Time Altitude Azimuth Distance (km) Brightness Sun altitude
Rises 05:35:05 0° 166° (SSE) 2,518 6.0 -10.7°
Reaches altitude 10° 05:37:07 10° 166° (SSE) 1,646 5.0 -10.4°
Maximum altitude 05:40:40 87° 78° (ENE) 486 2.6 -9.8°
Drops below altitude 10° 05:44:14 10° 349° (NNW) 1,663 5.6 -9.1°
Sets 05:46:18 0° 349° (NNW) 2,547 6.5 -8.7°
